User: anonymous   Login
Location: Unspecified
(0.0000°N, 0.0000°E)
Time: 05:17:12
(UTC+00:00)
Language:

NANOSAT-1 - Orbit

View from above orbital plane
View from above orbital plane
View from above satellite
View from above satellite

Ground track
Ground track

The orbit data is extracted from the following two-line orbital elements,

1 28493U 04049B   18147.21363040  .00000069  00000-0  18635-4 0  9995
2 28493  98.1647 224.6435 0004331   3.9768 356.1473 14.73420363721588
Epoch (UTC): 27 May 2018 05:07:37
Eccentricity: 0.0004331
inclination: 98.1647°
perigee height: 647 km
apogee height: 653 km
right ascension of ascending node: 224.6435°
argument of perigee: 3.9768°
revolutions per day: 14.73420363
mean anomaly at epoch: 356.1473°
orbit number at epoch: 72158

The dashed part of the orbit path shows where the satellite is in the earth's shadow,  

DLR